CYGFM01

Last updated on Sun Oct 06 2024 00:02:17 GMT+0000 (Coordinated Universal Time)

1 41887U 16078D 24279.52390771 .00027908 00000+0 92273-3 0 9999 2 41887 34.9465 324.9119 0011464 118.0331 242.1546 15.30347753432903
UTC large
Height (km)
Speed (km/s)
/
Latitude / Longitude
Inclination (degrees)
Orbital Period (minutes)
Azimuth
Elevation
Range (km)
Doppler Factor

Next 0 passes for location: London (51.5072 / 0.1276)

Sorry there are no passes over London.